Volver al catálogo

AMC-1

GE-1

ActivoComunicacionesGEO
NORAD 24315·PAYLOAD·🇱🇺 Luxembourg

Lanzado Sep 8, 1996 desde Cape Canaveral Space Force Station

Loading…

TLE

ActualizadoSource: Space-Track

Época: Sep 14, 2026, 15:11 UTC

1 24315U 96054A   26257.63325101 -.00000144  00000-0  00000-0 0  9992
2 24315   9.3295  58.1533 0007914 207.8441 130.2629  0.99511912 47121

Sigue AMC-1 en tiempo real con AllMySat

Download on the App Store